Home > Weather > Boké > Past weeks

Flag for Guinea Weather for the Past 2 Weeks in Boké, Guinea

Now
73 °F

Passing clouds.


Feels Like: 77 °F
Forecast: 58 / 96 °F
Wind: 5 mph from North

Location: Bissau Aeroport

Current Time: Feb 11, 2016 at 4:38:18 AM

Latest Report: Feb 11, 2016 at 4:00 AM


Visibility: N/A

Pressure: 29.86 "Hg

Humidity: 53%

Dew point: 55 °F

Location of BokéLocation

Historic Weather in Boké — Graph

°F

Boké Temperature Yesterday

Maximum temperature yesterday: 95 °F (at 3:00 PM)
Minimum temperature yesterday: 68 °F (at 7:00 AM)
Average temperature yesterday: 82 °F

High & Low Weather Summary for the Past Weeks

 TemperatureHumidityPressure
High97 °F (Feb 6, 4:00 PM)100% (Feb 1, 3:00 AM)30.01 "Hg (Feb 1, 3:00 AM)
Low66 °F (Feb 3, 8:00 AM)16% (Feb 3, 1:00 PM)29.77 "Hg (Feb 3, 4:00 PM)
Average81 °F44%29.90 "Hg
* Reported Jan 27 6:00 AM — Feb 11 3:00 AM, Boké, Weather by CustomWeather, © 2016

Note: Actual official high and low records may vary slightly from our data, if they occured in-between our weather recording intervals... More about our weather records

Advertising

Boké Weather History for the Previous 24 Hours

 ConditionsComfort  
Time TempWeatherWind HumidityBarometerVisibility
3:00 AM
Thu, Feb 11
72 °FClear.5 mph65%29.86 "Hg10 mi
2:00 AM73 °FClear.5 mph61%29.89 "Hg10 mi
1:00 AM75 °FClear.5 mph47%29.89 "Hg10 mi
10:00 PM
Wed, Feb 10
81 °FClear.2 mph48%29.89 "Hg5 mi
9:00 PM84 °FClear.1 mph40%29.89 "Hg10 mi
8:00 PM86 °FClear.No wind31%29.86 "Hg10 mi
7:00 PM91 °FSunny.No wind28%29.83 "Hg10 mi
6:00 PM93 °FPassing clouds.3 mph24%29.83 "HgN/A
5:00 PM95 °FPassing clouds.7 mph20%29.80 "HgN/A
4:00 PM95 °FPassing clouds.8 mph19%29.80 "HgN/A
3:00 PM95 °FPassing clouds.9 mph19%29.83 "HgN/A
1:00 PM90 °FPassing clouds.12 mph24%29.89 "HgN/A
12:00 PM81 °FPassing clouds.8 mph32%29.92 "HgN/A
11:00 AM75 °FClear.8 mph36%29.95 "Hg5 mi
10:00 AM72 °FClear.7 mph38%29.92 "Hg5 mi
8:00 AM70 °FClear.8 mph40%29.92 "Hg5 mi
7:00 AM68 °FClear.6 mph53%29.92 "Hg5 mi
6:00 AM70 °FClear.5 mph57%29.92 "Hg4 mi
Weather by CustomWeather, © 2016

See weather overviewHow to use our weather pages